Air Resources Laboratory banner image
Air Resources Laboratory web site National Oceanic and Atmospheric Administration (NOAA)

nm roundup


Office: ABQ

ASUS45 KABQ 160901
RWRNM
NEW MEXICO REGIONAL WEATHER ROUNDUP
NATIONAL WEATHER SERVICE ALBUQUERQUE NM
200 AM MST SAT DEC 16 2017

NOTE: "FAIR" MEANS FEW OR NO CLOUDS BELOW 12,000 FEET AGL WITH NO
       SIGNIFICANT WEATHER OR OBSTRUCTIONS TO VISION.

      THIS PRODUCT IS RELEASED AS TWO VERSIONS.  ONE VERSION NEAR
      THE TOP OF THE HOUR CONTAINING PRELIMINARY DATA FROM ALBUQUERQUE
      AND OTHER STATIONS.  A FINAL VERSION WITH ADDITIONAL DATA IS
      ISSUED ABOUT 10 MINUTES AFTER THE HOUR.

NMZ501-503-504-510>518-161000-
NORTHWEST PLATEAU/NORTHCENTRAL MOUNTAINS

CITY           SKY/WX    TMP DP  RH WIND       PRES   REMARKS
FARMINGTON     FAIR      18   8  65 E5        30.03F WCI  11
LOS ALAMOS     FAIR      32  12  42 CALM      30.04F
SANTA FE       FAIR      24  10  55 N8        30.03F WCI  15
TAOS           FAIR      11  -2  56 N7        30.06F WCI   0
ANGEL FIRE     FAIR       5   1  81 CALM      30.05S

$$
NMZ402-403-502-505>509-161000-
WESTCENTRAL MOUNTAINS/SOUTHWEST MOUNTAINS

CITY           SKY/WX    TMP DP  RH WIND       PRES   REMARKS
GALLUP         FAIR      12  -4  48 CALM      30.04F
GRANTS         FAIR      12 -10  36 NW6       30.06F WCI   2
SILVER CITY    FAIR      21  13  70 N10       30.08F WCI  10

$$
NMZ407-409-411-412-161000-
SOUTHERN DESERTS

CITY           SKY/WX    TMP DP  RH WIND       PRES   REMARKS
DEMING         FAIR      24  13  62 SW3       30.09F
LAS CRUCES     FAIR      28  20  71 NW7       30.10F WCI  21
HOLLOMAN AFB   FAIR      22   9  56 NW9       30.12F WCI  12
ALAMOGORDO     FAIR      28  14  54 CALM      30.10S
T OR C         FAIR      29  13  51 W5        30.08F WCI  24

$$
NMZ519>523-161000-
CENTRAL VALLEYS/CENTRAL HIGHLANDS

CITY           SKY/WX    TMP DP  RH WIND       PRES   REMARKS
ALBUQUERQUE    FAIR      27  14  58 SE8       30.06F WCI  19
MORIARTY ARPT  FAIR      13   6  73 E3        30.03F
CLINES CORNERS FAIR      25  11  55 W15       30.01F WCI  13
BELEN          FAIR      25  13  60 SE3       30.05F
SOCORRO        FAIR      26  15  63 S8        30.07F WCI  17

$$
NMZ524>526-539-540-161000-
SOUTHCENTRAL MOUNTAINS

CITY           SKY/WX    TMP DP  RH WIND       PRES   REMARKS
RUIDOSO        FAIR      27  12  54 W8        30.06F WCI  18

$$
NMZ527>531-161000-
NORTHEAST HIGHLANDS/NORTHEAST PLAINS

CITY           SKY/WX    TMP DP  RH WIND       PRES   REMARKS
LAS VEGAS      FAIR      30   2  30 W7        29.93F WCI  23
RATON          FAIR      18   7  62 NE7       29.90F WCI   9
CLAYTON        FAIR      35  10  35 W14       29.84F WCI  26

$$
NMZ532>537-161000-
EASTCENTRAL PLAINS

CITY           SKY/WX    TMP DP  RH WIND       PRES   REMARKS
SANTA ROSA     FAIR      38  15  40 W14G20    29.94F WCI  29
TUCUMCARI      FAIR      33  19  56 SW13      29.90F WCI  24
CANNON AFB     CLEAR     26  25  97 SW10      29.99S WCI  16
CLOVIS AIRPORT FAIR      27  22  81 SW10      29.98F WCI  17

$$
NMZ028-029-538-161000-
SOUTHEAST PLAINS

CITY           SKY/WX    TMP DP  RH WIND       PRES   REMARKS
ROSWELL        FAIR      25  14  63 CALM      30.01F
ARTESIA        FAIR      27  19  74 S7        30.02F WCI  19
CARLSBAD       FAIR      24  21  88 S5        30.02F WCI  18
HOBBS          FAIR      25  21  86 SW9       30.04F WCI  15


$$